SL-8 DEB, 21177

Orbit data source: Space-Track

SL-8 DEB, 21177 is space debris in LEO originally from a launch on Tue, 12 Feb 1991 UTC launched from the Plesetsk Missile And Space Complex (PKMTR). Debris objects in space refer to the collection of defunct objects orbiting the Earth. Examples of debris include non-operational satellites, rocket bodies, and fragments generated from explosions, collisions, or faulty payload assembly.

Loading next visibility...
Identifier
21177, 1991-009AQ
Orbit
LEO
Country
Flag of CISCIS
Related business
Manufacturer
Unknown
Mission
Spacecraft
Bus & Motor
Unknown
Mass
Unknown
Launch date (UTC)
1991-02-12 (35 years ago)
Launch vehicle
Unknown
Launch site
Plesetsk Missile And Space Complex (PKMTR)
Object type
Payload
Rocket body
Debris
Shape & HBR
Unknown shape, 0.3 m
Radar Cross Section
Medium (>0.1 m² and <1 m²)

Expand to show TLE details & history
Last TLE update: 2 days ago

TLE from 2 days ago
0 SL-8 DEB
1 21177U 91009AQ  26171.23553286 -.00000050  00000-0 -37460-3 0  9998
2 21177  74.1069  90.4114 0145405  72.5107  80.5255 12.13555136563334
Epoch: 2026-06-20T05:39Z
TLE epoch observation values (Epoch: 2026-06-20T05:39:10.039Z)
Latitude
24.31229°
Longitude
-90.18816°
Altitude
1,605.654 km
Speed
7.077 km/s
True Right ascension
17h 32m 13s
True Declination
24° 11' 50"
Sunlit
Object was in full shadow at epoch
Visualization orbit readout
Latitude
Unknown
Longitude
Unknown
Altitude
Unknown
Speed
Unknown
Apparent Right ascension
Unknown
Apparent Declination
Unknown
Sunlit
N/A
Visualization observer readout
Local Sidereal Time
03:45:27
Azimuth
Unknown
Elevation
Unknown
Doppler factor
Unknown
Orbital elements
Apogee altitude
1,734.884 km
Perigee altitude
1,502.331 km
Semi-major axis
7,996.745 km
Eccentricity
0.01454
Inclination
74.1069°
RAAN
90.4114°
Arg. of periapsis
72.5107°
True anomaly
82.17369°
Mean anomaly
80.5255°
Eccentric anomaly
81.34913°
Mean motion
3.0351 °/min
Orbital period
118.61 mins
BSTAR
-0.0003746
Loading maneuver chart data...
Computing Atmospheric mass density...
Loading historical data...
Loading historical data...
Loading historical data...
Loading historical data...
Loading historical data...
Loading historical data...
Loading historical data...

Documentation

Showing up to 5 results
|